Find Starlink 33703

NORAD ID: 63418 Int'l Des: 2025-065 Owner: SPXS Country: US Constellation: starlink operational
LEOCIRCULAR

Live Position

Loading 3D Globe...

About Starlink 33703

Description loading...

Upcoming Passes

Passes for default location (London). Set your location on the main map for personalized predictions.

Altitude History

Loading altitude history...

Two-Line Element Set

1 63418U 25065V 26124.11449067 .00026333 00000-0 96246-3 0 9994
2 63418 42.9968 154.2524 0002680 289.1511 70.9050 15.27597005 61311
Epoch: May 4, 2026 • Age: 9 hours

Current Status

Altitude 483.1 km
Velocity 7.63 km/s
Sub-Earth Point 3.63°N, 64.34°W
Launch Date Mar 31, 2025
Age 1 years
Type internet

Technical Details

Classification Payload
Mass 575.00 kg
Dry Mass 530.00 kg
Total Mass 575.00 kg
Length 0.30 m
Diameter 4.10 m
Span 29.00 m
Shape Box + pan
Manufacturer SPXS
Bus Type Starlink V2MO
Phase Status In Orbit
Owner/State SPXS/US

Most Searched